Location: Kermapucano
(48.0667°N, 3.3000°W)
Time: 19:40:37
(UTC+00:00)

Cosmos 2184 Rocket - Pass Details

Date: 29 November 2020
Orbit: 958 x 1003 km, 82.9° (Epoch: 27 January)

Event Time Altitude Azimuth Distance (km) Brightness Sun altitude
Rises 05:45:47 0° 190° (S) 3,682 7.1 -18.4°
Reaches altitude 10° 05:48:17 10° 191° (S) 2,744 6.4 -18.0°
Maximum altitude 05:54:36 81° 279° (W) 1,014 4.0 -17.0°
Drops below altitude 10° 06:01:02 10° 8° (N) 2,785 6.3 -16.0°
Sets 06:03:35 0° 9° (N) 3,741 7.0 -15.5°
